Location: Estes Par
(40.3770°N, 105.5210°W)
Time: 15:31:54
(UTC-06:00)

ISS - Pass Details

Date: 10 October 2017
Orbit: 401 x 408 km, 51.6° (Epoch: 22 October)

Event Time Altitude Azimuth Distance (km) Brightness Sun altitude
Rises 19:13:54 0° 313° (NW) 2,320 0.8 -9.3°
Reaches altitude 10° 19:16:26 10° 333° (NNW) 1,460 -0.6 -9.8°
Maximum altitude 19:18:48 18° 19° (NNE) 1,066 -1.9 -10.2°
Enters shadow 19:20:37 13° 58° (ENE) 1,315 -1.8 -10.6°
